QPF
0.05 0.07 0.12 0.12 0.13 0.16 0.14 0.11 0.09 0.09 0.09 0.09 0.08 0.07 0.05 0.05 0.04 0.05 0.06 0.08 0.08 0.08 0.09 0.08 0.07 0.06 0.04 0.02 0.02 0.02 0.02 0.02 0.02 0.01 0.01 0.01 0.03 0.04 0.04 0.03 0.04 0.05 0.03
0.04 0.10 0.15 0.12 0.12 0.14 0.11 0.10 0.09 0.08 0.07 0.07 0.08 0.07 0.05 0.04 0.03 0.03 0.04 0.06 0.06 0.07 0.08 0.08 0.09 0.08 0.07 0.05 0.04 0.03 0.02 0.02 0.02 0.02 0.01 0.01 0.02 0.03 0.04 0.04 0.05 0.06 0.04
0.03 0.07 0.12 0.15 0.13 0.11 0.08 0.07 0.07 0.06 0.05 0.05 0.06 0.05 0.04 0.04 0.03 0.03 0.05 0.06 0.06 0.06 0.06 0.06 0.09 0.09 0.09 0.09 0.07 0.05 0.04 0.02 0.03 0.03 0.04 0.04 0.02 0.04 0.03 0.04 0.04 0.04 0.03
0.04 0.07 0.13 0.11 0.09 0.07 0.05 0.04 0.04 0.04 0.04 0.04 0.05 0.05 0.05 0.05 0.04 0.05 0.05 0.05 0.05 0.06 0.05 0.06 0.07 0.08 0.09 0.08 0.06 0.05 0.04 0.04 0.04 0.06 0.08 0.05 0.04 0.04 0.05 0.04 0.03 0.02 0.02
0.03 0.05 0.06 0.06 0.06 0.04 0.04 0.04 0.04 0.04 0.05 0.05 0.05 0.06 0.06 0.05 0.04 0.05 0.06 0.05 0.04 0.05 0.06 0.07 0.08 0.07 0.09 0.08 0.07 0.07 0.05 0.04 0.05 0.07 0.08 0.09 0.09 0.06 0.03 0.03 0.04 0.03 0.03
0.04 0.05 0.03 0.04 0.05 0.07 0.06 0.05 0.05 0.05 0.06 0.07 0.06 0.06 0.06 0.05 0.06 0.07 0.07 0.07 0.06 0.06 0.07 0.08 0.09 0.07 0.09 0.09 0.07 0.07 0.05 0.04 0.06 0.07 0.08 0.16 0.11 0.08 0.04 0.03 0.04 0.04 0.04
0.03 0.05 0.03 0.03 0.03 0.03 0.04 0.04 0.05 0.05 0.06 0.08 0.08 0.07 0.06 0.04 0.03 0.03 0.05 0.06 0.07 0.06 0.08 0.09 0.10 0.08 0.09 0.10 0.06 0.05 0.05 0.05 0.09 0.07 0.06 0.10 0.10 0.06 0.04 0.03 0.05 0.06 0.05
0.02 0.04 0.04 0.04 0.02 0.02 0.02 0.03 0.05 0.06 0.05 0.06 0.07 0.06 0.06 0.06 0.05 0.04 0.04 0.05 0.05 0.05 0.06 0.07 0.09 0.11 0.13 0.12 0.06 0.05 0.04 0.04 0.07 0.05 0.05 0.10 0.07 0.05 0.04 0.03 0.04 0.07 0.06
0.02 0.07 0.07 0.06 0.05 0.04 0.03 0.02 0.02 0.03 0.04 0.06 0.06 0.03 0.03 0.04 0.05 0.05 0.04 0.03 0.03 0.03 0.04 0.04 0.07 0.10 0.15 0.13 0.07 0.04 0.03 0.04 0.06 0.05 0.06 0.09 0.06 0.05 0.05 0.04 0.04 0.05 0.06
0.05 0.09 0.09 0.07 0.06 0.04 0.02 0.01 0.01 0.02 0.03 0.04 0.05 0.04 0.04 0.05 0.06 0.05 0.04 0.04 0.04 0.03 0.02 0.02 0.05 0.08 0.14 0.14 0.09 0.05 0.04 0.05 0.04 0.04 0.05 0.05 0.04 0.05 0.05 0.05 0.04 0.05 0.07
0.06 0.08 0.08 0.06 0.05 0.04 0.02 0.01 0.01 0.02 0.03 0.04 0.07 0.07 0.07 0.09 0.10 0.10 0.05 0.04 0.03 0.03 0.03 0.03 0.03 0.06 0.09 0.12 0.11 0.07 0.07 0.06 0.04 0.04 0.04 0.04 0.04 0.05 0.06 0.08 0.05 0.05 0.07
0.04 0.06 0.07 0.05 0.04 0.03 0.02 0.02 0.02 0.03 0.06 0.08 0.12 0.11 0.10 0.12 0.13 0.09 0.08 0.07 0.06 0.05 0.05 0.05 0.05 0.07 0.07 0.11 0.13 0.09 0.07 0.06 0.06 0.05 0.05 0.04 0.04 0.05 0.06 0.07 0.05 0.05 0.06
0.05 0.05 0.04 0.04 0.03 0.03 0.02 0.03 0.04 0.04 0.08 0.11 0.15 0.13 0.10 0.11 0.12 0.12 0.10 0.07 0.07 0.06 0.08 0.08 0.08 0.09 0.09 0.11 0.14 0.11 0.07 0.08 0.07 0.06 0.07 0.05 0.04 0.06 0.06 0.06 0.04 0.04 0.04
0.03 0.03 0.02 0.03 0.03 0.02 0.02 0.04 0.05 0.03 0.05 0.10 0.10 0.09 0.08 0.09 0.08 0.08 0.09 0.09 0.09 0.08 0.09 0.11 0.09 0.09 0.08 0.10 0.14 0.12 0.08 0.08 0.09 0.10 0.10 0.05 0.03 0.04 0.05 0.05 0.04 0.03 0.03
0.01 0.01 0.02 0.02 0.02 0.02 0.03 0.06 0.07 0.03 0.05 0.08 0.07 0.06 0.07 0.08 0.10 0.11 0.09 0.09 0.09 0.07 0.07 0.08 0.07 0.08 0.08 0.10 0.12 0.12 0.09 0.07 0.08 0.11 0.10 0.07 0.04 0.03 0.04 0.04 0.05 0.04 0.03
0.00 0.01 0.01 0.01 0.01 0.02 0.04 0.09 0.10 0.03 0.08 0.11 0.08 0.07 0.06 0.06 0.10 0.10 0.10 0.10 0.09 0.07 0.07 0.07 0.08 0.09 0.09 0.10 0.12 0.13 0.12 0.08 0.07 0.08 0.09 0.08 0.06 0.05 0.04 0.04 0.04 0.05 0.04
0.01 0.01 0.01 0.01 0.02 0.03 0.05 0.09 0.08 0.07 0.13 0.13 0.07 0.06 0.04 0.04 0.07 0.10 0.09 0.09 0.09 0.07 0.08 0.11 0.16 0.13 0.09 0.10 0.12 0.12 0.12 0.09 0.07 0.08 0.10 0.10 0.09 0.08 0.07 0.05 0.04 0.05 0.05
0.02 0.02 0.01 0.01 0.02 0.05 0.06 0.08 0.07 0.06 0.09 0.07 0.04 0.04 0.04 0.04 0.06 0.08 0.08 0.08 0.10 0.10 0.09 0.11 0.19 0.23 0.20 0.15 0.11 0.09 0.07 0.06 0.05 0.05 0.07 0.09 0.10 0.10 0.10 0.08 0.07 0.09 0.08
0.01 0.01 0.01 0.01 0.02 0.03 0.04 0.05 0.06 0.05 0.06 0.05 0.04 0.04 0.05 0.05 0.05 0.06 0.06 0.08 0.11 0.11 0.08 0.07 0.12 0.19 0.23 0.24 0.17 0.13 0.09 0.06 0.05 0.04 0.06 0.08 0.08 0.09 0.11 0.12 0.10 0.10 0.10
0.01 0.01 0.01 0.01 0.02 0.04 0.05 0.06 0.06 0.05 0.05 0.04 0.04 0.04 0.05 0.05 0.04 0.04 0.06 0.07 0.08 0.09 0.09 0.10 0.12 0.13 0.17 0.21 0.17 0.17 0.15 0.09 0.07 0.06 0.07 0.07 0.06 0.07 0.09 0.12 0.11 0.08 0.08
0.01 0.02 0.02 0.02 0.03 0.04 0.06 0.07 0.06 0.04 0.03 0.03 0.03 0.03 0.03 0.04 0.04 0.04 0.06 0.10 0.10 0.11 0.11 0.12 0.13 0.12 0.14 0.16 0.16 0.19 0.18 0.13 0.11 0.09 0.10 0.10 0.07 0.07 0.08 0.11 0.14 0.14 0.12
0.01 0.01 0.01 0.02 0.03 0.03 0.06 0.06 0.05 0.04 0.03 0.03 0.03 0.03 0.02 0.03 0.04 0.04 0.05 0.11 0.12 0.12 0.13 0.14 0.14 0.15 0.14 0.15 0.16 0.18 0.18 0.17 0.14 0.11 0.10 0.09 0.08 0.09 0.07 0.08 0.10 0.10 0.09
0.01 0.01 0.02 0.02 0.02 0.03 0.04 0.05 0.04 0.03 0.04 0.05 0.05 0.04 0.02 0.02 0.04 0.06 0.06 0.08 0.11 0.10 0.11 0.13 0.14 0.14 0.14 0.15 0.16 0.16 0.16 0.16 0.15 0.14 0.10 0.07 0.08 0.08 0.07 0.08 0.08 0.07 0.07
0.01 0.02 0.03 0.02 0.03 0.03 0.03 0.05 0.05 0.05 0.05 0.05 0.05 0.05 0.05 0.04 0.03 0.04 0.05 0.08 0.10 0.10 0.09 0.10 0.14 0.16 0.16 0.17 0.15 0.15 0.15 0.14 0.14 0.14 0.12 0.08 0.08 0.06 0.06 0.05 0.05 0.06 0.07
0.00 0.01 0.02 0.02 0.03 0.03 0.03 0.05 0.06 0.04 0.04 0.05 0.04 0.05 0.06 0.03 0.03 0.03 0.03 0.05 0.06 0.09 0.08 0.08 0.11 0.14 0.15 0.14 0.14 0.14 0.12 0.11 0.10 0.11 0.12 0.10 0.08 0.06 0.06 0.05 0.04 0.06 0.08
0.00 0.01 0.01 0.01 0.01 0.02 0.02 0.02 0.04 0.04 0.04 0.05 0.04 0.04 0.04 0.03 0.02 0.02 0.02 0.03 0.04 0.06 0.07 0.07 0.08 0.10 0.12 0.11 0.12 0.14 0.12 0.10 0.09 0.10 0.12 0.12 0.10 0.06 0.06 0.05 0.06 0.07 0.06
MSLP
1003.01 1002.49 1002.31 1002.45 1002.79 1003.19 1003.55 1003.77 1003.84 1003.80 1003.72 1003.69 1003.80 1004.07 1004.48 1004.96 1005.46 1005.89 1006.20 1006.40 1006.52 1006.62 1006.75 1006.96 1007.28 1007.68 1008.13 1008.58 1008.99 1009.33 1009.60 1009.83 1010.04 1010.27 1010.54 1010.84 1011.16 1011.49 1011.79 1012.05 1012.27 1012.46 1012.63
1002.91 1002.46 1002.35 1002.54 1002.92 1003.35 1003.70 1003.90 1003.93 1003.83 1003.70 1003.64 1003.73 1003.99 1004.41 1004.92 1005.45 1005.91 1006.26 1006.48 1006.61 1006.70 1006.80 1006.98 1007.26 1007.61 1008.02 1008.43 1008.82 1009.15 1009.43 1009.67 1009.90 1010.14 1010.42 1010.72 1011.05 1011.37 1011.68 1011.96 1012.22 1012.46 1012.70
1002.58 1002.22 1002.20 1002.48 1002.93 1003.41 1003.79 1003.99 1004.00 1003.86 1003.68 1003.56 1003.59 1003.80 1004.18 1004.68 1005.20 1005.68 1006.06 1006.31 1006.47 1006.59 1006.71 1006.89 1007.14 1007.47 1007.85 1008.24 1008.61 1008.95 1009.24 1009.50 1009.76 1010.02 1010.31 1010.62 1010.93 1011.24 1011.54 1011.83 1012.10 1012.39 1012.69
1002.10 1001.84 1001.93 1002.31 1002.84 1003.39 1003.80 1004.01 1003.99 1003.81 1003.56 1003.36 1003.30 1003.43 1003.74 1004.18 1004.68 1005.16 1005.57 1005.89 1006.11 1006.29 1006.47 1006.68 1006.95 1007.28 1007.65 1008.03 1008.40 1008.75 1009.06 1009.36 1009.65 1009.94 1010.24 1010.54 1010.83 1011.12 1011.40 1011.67 1011.95 1012.26 1012.61
1001.62 1001.45 1001.64 1002.11 1002.71 1003.29 1003.72 1003.92 1003.87 1003.63 1003.29 1002.99 1002.82 1002.84 1003.05 1003.43 1003.90 1004.40 1004.86 1005.25 1005.57 1005.85 1006.12 1006.40 1006.71 1007.06 1007.44 1007.82 1008.20 1008.56 1008.91 1009.24 1009.57 1009.90 1010.21 1010.51 1010.79 1011.04 1011.28 1011.52 1011.79 1012.10 1012.47
1001.28 1001.20 1001.46 1001.97 1002.60 1003.18 1003.58 1003.73 1003.61 1003.28 1002.85 1002.43 1002.15 1002.06 1002.19 1002.51 1002.96 1003.48 1004.01 1004.51 1004.95 1005.35 1005.73 1006.10 1006.47 1006.85 1007.24 1007.63 1008.01 1008.40 1008.77 1009.15 1009.52 1009.88 1010.23 1010.53 1010.79 1011.01 1011.21 1011.41 1011.64 1011.92 1012.28
1001.23 1001.20 1001.48 1001.99 1002.57 1003.09 1003.40 1003.45 1003.23 1002.80 1002.27 1001.75 1001.37 1001.20 1001.26 1001.55 1002.00 1002.57 1003.18 1003.79 1004.36 1004.89 1005.38 1005.83 1006.26 1006.67 1007.07 1007.46 1007.84 1008.23 1008.64 1009.05 1009.46 1009.87 1010.24 1010.56 1010.81 1011.01 1011.17 1011.32 1011.50 1011.74 1012.05
1001.53 1001.52 1001.78 1002.21 1002.69 1003.07 1003.24 1003.16 1002.81 1002.27 1001.65 1001.06 1000.61 1000.40 1000.43 1000.71 1001.20 1001.82 1002.51 1003.22 1003.91 1004.55 1005.13 1005.65 1006.12 1006.54 1006.93 1007.30 1007.67 1008.06 1008.47 1008.90 1009.35 1009.79 1010.19 1010.53 1010.79 1010.98 1011.11 1011.21 1011.34 1011.52 1011.78
1002.16 1002.14 1002.33 1002.65 1002.96 1003.16 1003.16 1002.92 1002.44 1001.81 1001.12 1000.50 1000.04 999.82 999.87 1000.17 1000.69 1001.36 1002.12 1002.90 1003.67 1004.37 1005.01 1005.57 1006.04 1006.46 1006.82 1007.16 1007.49 1007.85 1008.25 1008.68 1009.14 1009.59 1010.02 1010.37 1010.64 1010.83 1010.94 1011.02 1011.11 1011.24 1011.45
1003.05 1002.99 1003.08 1003.24 1003.37 1003.38 1003.20 1002.80 1002.22 1001.53 1000.83 1000.22 999.79 999.61 999.69 1000.03 1000.58 1001.27 1002.06 1002.87 1003.65 1004.37 1005.02 1005.57 1006.03 1006.40 1006.72 1007.01 1007.29 1007.60 1007.95 1008.35 1008.79 1009.23 1009.65 1010.01 1010.28 1010.47 1010.59 1010.66 1010.73 1010.83 1011.00
1004.05 1003.94 1003.93 1003.93 1003.88 1003.71 1003.37 1002.86 1002.22 1001.51 1000.84 1000.29 999.94 999.82 999.95 1000.32 1000.87 1001.56 1002.31 1003.09 1003.83 1004.52 1005.12 1005.62 1006.04 1006.37 1006.63 1006.85 1007.07 1007.31 1007.59 1007.93 1008.30 1008.69 1009.07 1009.40 1009.67 1009.86 1009.99 1010.07 1010.14 1010.24 1010.40
1005.05 1004.89 1004.78 1004.65 1004.45 1004.13 1003.68 1003.11 1002.46 1001.80 1001.20 1000.75 1000.49 1000.44 1000.62 1000.99 1001.51 1002.14 1002.81 1003.49 1004.14 1004.73 1005.26 1005.70 1006.05 1006.33 1006.54 1006.70 1006.86 1007.01 1007.21 1007.44 1007.70 1008.00 1008.29 1008.57 1008.80 1008.98 1009.11 1009.21 1009.31 1009.44 1009.61
1005.96 1005.75 1005.55 1005.32 1005.01 1004.61 1004.11 1003.54 1002.93 1002.36 1001.87 1001.53 1001.37 1001.39 1001.59 1001.93 1002.39 1002.90 1003.45 1003.98 1004.50 1004.97 1005.39 1005.75 1006.04 1006.27 1006.44 1006.56 1006.65 1006.74 1006.82 1006.93 1007.07 1007.22 1007.39 1007.57 1007.73 1007.87 1008.00 1008.12 1008.26 1008.42 1008.63
1006.71 1006.47 1006.21 1005.91 1005.55 1005.12 1004.62 1004.10 1003.58 1003.11 1002.75 1002.52 1002.45 1002.52 1002.71 1003.00 1003.35 1003.72 1004.10 1004.47 1004.83 1005.16 1005.47 1005.75 1005.99 1006.20 1006.34 1006.44 1006.49 1006.50 1006.49 1006.47 1006.45 1006.45 1006.46 1006.50 1006.56 1006.64 1006.75 1006.88 1007.05 1007.26 1007.50
1007.32 1007.04 1006.74 1006.41 1006.03 1005.62 1005.17 1004.73 1004.31 1003.97 1003.73 1003.60 1003.59 1003.67 1003.83 1004.04 1004.26 1004.48 1004.69 1004.89 1005.09 1005.29 1005.49 1005.71 1005.92 1006.10 1006.25 1006.34 1006.37 1006.33 1006.24 1006.10 1005.93 1005.76 1005.61 1005.50 1005.44 1005.43 1005.50 1005.62 1005.80 1006.04 1006.32
1007.81 1007.50 1007.18 1006.84 1006.47 1006.09 1005.72 1005.37 1005.06 1004.83 1004.68 1004.62 1004.64 1004.71 1004.82 1004.93 1005.02 1005.10 1005.16 1005.21 1005.27 1005.35 1005.47 1005.63 1005.81 1006.00 1006.15 1006.26 1006.29 1006.22 1006.07 1005.84 1005.55 1005.25 1004.94 1004.69 1004.50 1004.40 1004.40 1004.49 1004.66 1004.91 1005.20
1008.24 1007.91 1007.57 1007.23 1006.88 1006.55 1006.25 1005.98 1005.76 1005.61 1005.53 1005.50 1005.52 1005.56 1005.60 1005.62 1005.61 1005.57 1005.51 1005.44 1005.40 1005.40 1005.45 1005.56 1005.72 1005.90 1006.06 1006.18 1006.22 1006.16 1005.98 1005.70 1005.34 1004.93 1004.51 1004.14 1003.85 1003.65 1003.58 1003.62 1003.77 1003.99 1004.27
1008.66 1008.31 1007.96 1007.61 1007.29 1007.00 1006.75 1006.55 1006.39 1006.29 1006.24 1006.22 1006.21 1006.21 1006.19 1006.14 1006.05 1005.93 1005.80 1005.66 1005.55 1005.48 1005.48 1005.54 1005.66 1005.82 1005.98 1006.10 1006.16 1006.10 1005.93 1005.65 1005.26 1004.80 1004.33 1003.89 1003.53 1003.27 1003.13 1003.12 1003.21 1003.39 1003.62
1009.09 1008.73 1008.37 1008.03 1007.72 1007.46 1007.25 1007.08 1006.97 1006.88 1006.83 1006.79 1006.75 1006.70 1006.63 1006.53 1006.40 1006.25 1006.08 1005.92 1005.77 1005.66 1005.61 1005.62 1005.69 1005.79 1005.92 1006.03 1006.08 1006.05 1005.90 1005.65 1005.29 1004.85 1004.38 1003.92 1003.53 1003.23 1003.05 1002.99 1003.03 1003.15 1003.32
1009.54 1009.19 1008.82 1008.48 1008.18 1007.94 1007.75 1007.61 1007.51 1007.43 1007.35 1007.28 1007.20 1007.11 1007.00 1006.88 1006.74 1006.59 1006.43 1006.27 1006.12 1005.98 1005.88 1005.82 1005.81 1005.84 1005.90 1005.97 1006.00 1005.98 1005.88 1005.68 1005.38 1005.01 1004.59 1004.18 1003.80 1003.50 1003.30 1003.20 1003.20 1003.26 1003.35
1010.00 1009.66 1009.31 1008.98 1008.69 1008.46 1008.29 1008.16 1008.06 1007.97 1007.87 1007.77 1007.65 1007.52 1007.39 1007.26 1007.14 1007.01 1006.89 1006.75 1006.60 1006.45 1006.30 1006.17 1006.06 1006.00 1005.97 1005.96 1005.96 1005.93 1005.87 1005.73 1005.52 1005.24 1004.91 1004.57 1004.24 1003.97 1003.78 1003.66 1003.62 1003.63 1003.67
1010.45 1010.14 1009.81 1009.50 1009.23 1009.02 1008.86 1008.75 1008.66 1008.56 1008.44 1008.30 1008.15 1007.99 1007.85 1007.72 1007.62 1007.53 1007.44 1007.34 1007.21 1007.05 1006.86 1006.65 1006.45 1006.27 1006.13 1006.04 1005.98 1005.94 1005.89 1005.81 1005.68 1005.50 1005.27 1005.01 1004.76 1004.53 1004.36 1004.25 1004.19 1004.17 1004.17
1010.86 1010.61 1010.31 1010.02 1009.78 1009.60 1009.47 1009.38 1009.30 1009.20 1009.08 1008.92 1008.74 1008.56 1008.39 1008.26 1008.17 1008.11 1008.06 1008.00 1007.89 1007.73 1007.51 1007.24 1006.95 1006.67 1006.43 1006.24 1006.11 1006.04 1005.99 1005.95 1005.88 1005.78 1005.63 1005.45 1005.26 1005.08 1004.94 1004.84 1004.78 1004.75 1004.74
1011.24 1011.04 1010.78 1010.53 1010.32 1010.17 1010.08 1010.02 1009.97 1009.89 1009.77 1009.60 1009.40 1009.19 1009.00 1008.86 1008.77 1008.72 1008.70 1008.66 1008.58 1008.42 1008.19 1007.89 1007.54 1007.18 1006.85 1006.58 1006.39 1006.27 1006.20 1006.16 1006.13 1006.06 1005.97 1005.84 1005.69 1005.55 1005.42 1005.33 1005.29 1005.27 1005.26
1011.57 1011.43 1011.22 1011.01 1010.83 1010.72 1010.67 1010.65 1010.64 1010.59 1010.48 1010.31 1010.09 1009.85 1009.63 1009.46 1009.35 1009.29 1009.28 1009.26 1009.20 1009.07 1008.84 1008.54 1008.16 1007.77 1007.38 1007.06 1006.81 1006.63 1006.53 1006.47 1006.43 1006.37 1006.29 1006.17 1006.04 1005.90 1005.78 1005.70 1005.66 1005.66 1005.68
1011.89 1011.80 1011.63 1011.44 1011.30 1011.22 1011.20 1011.23 1011.25 1011.24 1011.15 1010.98 1010.75 1010.49 1010.23 1010.02 1009.87 1009.80 1009.77 1009.76 1009.72 1009.62 1009.42 1009.14 1008.78 1008.38 1007.98 1007.62 1007.33 1007.12 1006.97 1006.87 1006.79 1006.70 1006.59 1006.46 1006.31 1006.16 1006.03 1005.94 1005.91 1005.92 1005.96
Thickness
5802 5800 5796 5794 5793 5791 5790 5789 5788 5786 5784 5783 5782 5781 5779 5778 5777 5777 5776 5775 5774 5773 5773 5772 5772 5771 5771 5771 5771 5770 5770 5769 5769 5769 5768 5768 5767 5767 5766 5766 5765 5765 5763
5806 5800 5796 5794 5792 5791 5789 5788 5787 5785 5784 5782 5781 5780 5779 5778 5776 5776 5775 5774 5774 5773 5772 5772 5771 5770 5770 5769 5769 5769 5769 5768 5768 5768 5768 5767 5767 5766 5766 5765 5765 5763 5762
5807 5801 5796 5793 5792 5790 5788 5787 5786 5784 5783 5781 5780 5779 5778 5777 5776 5775 5774 5774 5773 5772 5772 5771 5770 5769 5769 5768 5768 5768 5768 5768 5768 5767 5767 5767 5767 5766 5765 5764 5763 5762 5761
5808 5802 5796 5793 5791 5789 5788 5786 5785 5783 5782 5780 5779 5778 5777 5776 5775 5775 5774 5773 5772 5772 5771 5770 5770 5769 5768 5768 5768 5768 5768 5767 5767 5767 5768 5768 5768 5766 5765 5763 5762 5761 5760
5808 5802 5796 5793 5791 5789 5787 5785 5784 5782 5781 5779 5778 5777 5776 5775 5775 5774 5773 5773 5772 5771 5770 5770 5769 5768 5767 5767 5767 5767 5767 5767 5767 5767 5768 5768 5767 5766 5764 5763 5762 5760 5759
5808 5802 5796 5793 5790 5788 5786 5784 5782 5781 5779 5778 5777 5776 5775 5774 5774 5774 5773 5772 5771 5770 5770 5769 5768 5767 5767 5766 5766 5766 5767 5767 5767 5768 5768 5767 5766 5765 5765 5763 5761 5760 5759
5809 5802 5796 5792 5789 5787 5785 5783 5781 5780 5778 5777 5776 5776 5775 5774 5773 5773 5772 5771 5770 5770 5769 5768 5768 5767 5767 5766 5766 5766 5767 5767 5768 5770 5770 5768 5766 5766 5765 5763 5762 5760 5759
5810 5803 5796 5792 5789 5786 5784 5783 5781 5780 5779 5777 5776 5776 5775 5774 5773 5772 5772 5771 5770 5769 5769 5768 5768 5767 5767 5767 5767 5767 5767 5767 5769 5771 5771 5769 5767 5765 5764 5763 5761 5760 5759
5811 5804 5798 5793 5789 5786 5784 5783 5781 5780 5779 5777 5777 5776 5775 5774 5773 5772 5771 5770 5770 5769 5768 5768 5767 5767 5767 5767 5767 5767 5767 5767 5768 5771 5771 5769 5767 5765 5764 5762 5761 5759 5758
5810 5805 5800 5796 5792 5789 5786 5783 5782 5780 5779 5778 5777 5776 5776 5774 5773 5772 5771 5770 5770 5769 5768 5768 5767 5767 5767 5767 5767 5767 5767 5768 5769 5772 5771 5769 5767 5765 5764 5762 5761 5760 5758
5807 5805 5802 5799 5795 5792 5788 5785 5782 5780 5779 5777 5776 5776 5775 5774 5773 5773 5772 5771 5770 5769 5769 5768 5768 5768 5768 5768 5768 5768 5768 5768 5771 5772 5771 5769 5767 5765 5764 5763 5761 5760 5759
5802 5803 5802 5799 5796 5793 5791 5785 5783 5781 5779 5777 5777 5776 5775 5775 5774 5774 5773 5771 5770 5769 5769 5769 5768 5768 5768 5769 5769 5768 5768 5770 5771 5772 5771 5770 5768 5766 5764 5763 5762 5760 5759
5803 5802 5801 5799 5796 5793 5790 5787 5785 5783 5780 5779 5777 5776 5775 5775 5774 5773 5772 5771 5770 5770 5769 5769 5769 5769 5770 5771 5771 5769 5770 5771 5772 5772 5770 5769 5768 5766 5764 5763 5762 5761 5759
5802 5800 5800 5798 5795 5792 5789 5788 5785 5784 5781 5780 5777 5775 5775 5774 5774 5773 5772 5772 5771 5771 5770 5770 5770 5771 5771 5772 5771 5771 5771 5771 5772 5771 5769 5769 5768 5766 5764 5763 5762 5761 5759
5801 5800 5800 5798 5793 5790 5788 5786 5784 5783 5782 5780 5778 5775 5774 5773 5772 5772 5772 5771 5770 5770 5770 5769 5770 5770 5771 5771 5771 5771 5771 5771 5771 5770 5768 5767 5767 5766 5764 5763 5761 5760 5759
5801 5799 5799 5797 5793 5789 5786 5784 5783 5782 5780 5779 5777 5774 5773 5772 5771 5770 5770 5769 5769 5769 5770 5769 5770 5769 5769 5769 5769 5770 5770 5770 5770 5769 5767 5766 5765 5765 5764 5762 5761 5760 5759
5801 5799 5798 5796 5792 5788 5785 5783 5782 5780 5779 5777 5776 5773 5772 5771 5769 5769 5768 5768 5768 5768 5769 5769 5769 5768 5768 5768 5768 5768 5768 5768 5768 5767 5767 5765 5764 5763 5762 5761 5760 5759 5758
5802 5798 5797 5797 5791 5787 5785 5783 5781 5779 5778 5777 5775 5773 5770 5769 5768 5767 5766 5766 5767 5767 5767 5767 5766 5765 5765 5765 5765 5766 5767 5767 5767 5766 5765 5765 5764 5763 5761 5760 5759 5758 5757
5804 5800 5796 5795 5791 5787 5785 5782 5781 5779 5778 5776 5774 5772 5770 5768 5767 5766 5764 5764 5764 5764 5764 5764 5763 5762 5761 5761 5762 5763 5764 5764 5765 5766 5765 5764 5764 5762 5761 5759 5757 5756 5756
5806 5801 5797 5794 5790 5788 5785 5782 5780 5778 5777 5776 5773 5771 5769 5767 5765 5764 5763 5762 5762 5762 5760 5760 5760 5760 5759 5759 5760 5761 5761 5763 5763 5763 5763 5764 5763 5762 5761 5759 5756 5754 5754
5806 5800 5796 5792 5789 5787 5783 5780 5776 5775 5775 5774 5772 5770 5767 5765 5764 5762 5761 5760 5760 5758 5757 5757 5756 5756 5756 5757 5753 5752 5756 5760 5760 5760 5761 5761 5762 5761 5760 5758 5756 5754 5753
5805 5800 5796 5792 5789 5787 5784 5781 5779 5777 5775 5773 5771 5769 5767 5764 5762 5762 5758 5757 5757 5755 5754 5754 5753 5751 5752 5753 5748 5744 5742 5746 5752 5758 5757 5757 5758 5759 5758 5757 5754 5753 5753
5805 5801 5798 5793 5790 5787 5785 5782 5779 5776 5773 5770 5768 5766 5765 5763 5761 5759 5757 5755 5754 5753 5751 5752 5751 5749 5746 5749 5750 5743 5736 5733 5740 5748 5751 5753 5754 5754 5754 5754 5753 5752 5751
5807 5804 5799 5794 5790 5787 5785 5781 5776 5771 5767 5767 5767 5766 5764 5762 5760 5757 5755 5753 5751 5751 5750 5749 5750 5748 5745 5742 5745 5746 5743 5740 5733 5733 5740 5746 5748 5749 5750 5752 5751 5750 5749
5811 5806 5800 5794 5790 5787 5784 5781 5776 5772 5770 5769 5767 5764 5763 5760 5758 5756 5754 5752 5750 5748 5747 5747 5746 5745 5743 5740 5739 5740 5739 5738 5737 5730 5728 5734 5739 5743 5746 5747 5747 5747 5746
5813 5808 5801 5794 5789 5787 5784 5780 5776 5772 5769 5766 5764 5761 5760 5759 5757 5755 5753 5750 5749 5747 5745 5744 5743 5742 5740 5739 5738 5737 5735 5733 5731 5729 5726 5726 5728 5734 5740 5742 5743 5742 5742